Date String (YYYY-MM-DD hh:mm:ss) UTC,Instrument flags,absolute air pressure of the measurement (hPa),sample flow rate (lpm),inlet stack bypass flow (lpm),air temperature of the measurement (°C),ambient temperature measured by the external sensor (°C),aerosol sample conditioner tube jacket temperature (°C),OPC LED temperature (°C),internal box temperature (°C),relative humidity of the measurement (%),span deviation,mass concentration of particles derived from Lorenz-Mie calculation of OPC scattering (μg/m³),mass concentration of particles derived from Lorenz-Mie calculation of OPC scattering (μg/m³),mass concentration of particles derived from Lorenz-Mie calculation of OPC scattering (μg/m³)
DateTimeUTC,F1_M11,P_M11,Q1_M11,Q2_M11,T1_M11,T2_M11,T3_M11,T4_M11,T5_M11,U1_M11,ZSPAN_M11,X0_M11,X2_M11,X1_M11
2023-10-12 11:00:00,SystemResetWarning,0813.2,5.01,000.00,028.3,026.6,000.0,036.8,029.9,19.6,0000.0,0003.45,0001.70,0001.43
2023-10-12 11:01:00,SystemResetWarning,0813.2,5.01,000.00,028.3,026.6,000.0,036.8,029.9,19.7,0000.0,0003.43,0001.71,0001.44
2023-10-12 11:02:00,SystemResetWarning,0813.2,5.01,000.00,028.3,026.6,000.0,036.8,029.9,19.5,0000.0,0003.29,0001.74,0001.46
2023-10-12 11:03:00,SystemResetWarning,0813.2,4.99,000.00,028.3,026.6,000.0,036.8,029.9,19.5,0000.0,0002.90,0001.73,0001.47
2023-10-12 11:04:00,SystemResetWarning,0813.2,5.01,000.00,028.3,026.6,000.0,036.8,029.8,19.4,0000.0,0002.89,0001.74,0001.48
2023-10-12 11:05:00,SystemResetWarning,0813.2,5.02,000.00,028.2,026.6,000.0,036.8,029.9,19.3,0000.0,0002.83,0001.76,0001.48
2023-10-12 11:06:00,SystemResetWarning,0813.1,4.99,000.00,028.2,026.6,000.0,036.8,029.8,19.1,0000.0,0002.72,0001.75,0001.48
2023-10-12 11:07:00,SystemResetWarning,0813.1,4.99,000.00,028.2,026.5,000.0,036.8,029.8,18.6,0000.0,0002.68,0001.76,0001.49
2023-10-12 11:08:00,SystemResetWarning,0813.1,5.00,000.00,028.2,026.5,000.0,036.8,029.8,18.3,0000.0,0002.55,0001.78,0001.51
2023-10-12 11:09:00,SystemResetWarning,0813.1,5.00,000.00,028.2,026.5,000.0,036.8,029.8,18.0,0000.0,0002.46,0001.78,0001.50
2023-10-12 11:10:00,SystemResetWarning,0813.1,5.00,000.00,028.2,026.5,000.0,036.8,029.8,17.2,0000.0,0002.47,0001.73,0001.49
2023-10-12 11:11:00,SystemResetWarning,0813.2,5.00,000.00,028.2,026.5,000.0,036.7,029.7,16.7,0000.0,0002.64,0001.72,0001.47
2023-10-12 11:12:00,SystemResetWarning,0813.2,5.01,000.00,028.2,026.5,000.0,036.7,029.7,16.9,0000.0,0002.72,0001.72,0001.46
2023-10-12 11:13:00,SystemResetWarning,0813.2,5.01,000.00,028.1,026.5,000.0,036.7,029.7,16.5,0000.0,0002.68,0001.69,0001.45
2023-10-12 11:14:00,SystemResetWarning,0813.2,5.00,000.00,028.1,026.5,000.0,036.7,029.7,15.9,0000.0,0002.65,0001.70,0001.45
2023-10-12 11:15:00,SystemResetWarning,0813.2,5.00,000.00,028.1,026.5,000.0,036.7,029.7,15.7,0000.0,0002.67,0001.72,0001.45
2023-10-12 11:16:00,SystemResetWarning,0813.1,5.00,000.00,028.1,026.5,000.0,036.7,029.7,15.0,0000.0,0002.56,0001.68,0001.45
2023-10-12 11:17:00,SystemResetWarning,0813.1,5.00,000.00,028.1,026.5,000.0,036.7,029.7,14.4,0000.0,0002.49,0001.64,0001.44
2023-10-12 11:18:00,SystemResetWarning,0813.1,5.00,000.00,028.1,026.5,000.0,036.7,029.7,14.2,0000.0,0002.46,0001.62,0001.41
2023-10-12 11:19:00,SystemResetWarning,0813.1,5.00,000.00,028.1,026.5,000.0,036.7,029.7,14.6,0000.0,0002.46,0001.62,0001.39
2023-10-12 11:20:00,SystemResetWarning,0813.1,5.00,000.00,028.1,026.5,000.0,036.7,029.6,14.7,0000.0,0002.57,0001.64,0001.39
2023-10-12 11:21:00,SystemResetWarning,0813.1,5.00,000.00,028.1,026.5,000.0,036.6,029.6,14.5,0000.0,0002.61,0001.67,0001.39
2023-10-12 11:22:00,SystemResetWarning,0813.1,5.00,000.00,028.1,026.4,000.0,036.6,029.6,14.5,0000.0,0002.41,0001.68,0001.39
2023-10-12 11:23:00,SystemResetWarning,0813.1,5.00,000.00,028.0,026.4,000.0,036.6,029.6,14.7,0000.0,0002.30,0001.66,0001.39
2023-10-12 11:24:00,SystemResetWarning,0813.1,5.01,000.00,028.0,026.4,000.0,036.6,029.6,14.9,0000.0,0002.33,0001.68,0001.39
2023-10-12 11:25:00,SystemResetWarning,0813.1,4.99,000.00,028.0,026.4,000.0,036.6,029.6,15.0,0000.0,0002.34,0001.67,0001.38
2023-10-12 11:26:00,SystemResetWarning,0813.2,4.99,000.00,028.0,026.4,000.0,036.6,029.6,15.6,0000.0,0002.40,0001.68,0001.38
2023-10-12 11:27:00,SystemResetWarning,0813.2,5.00,000.00,028.0,026.4,000.0,036.6,029.6,16.2,0000.0,0002.37,0001.67,0001.37
2023-10-12 11:28:00,SystemResetWarning,0813.2,4.99,000.00,028.0,026.4,000.0,036.6,029.6,16.5,0000.0,0002.46,0001.68,0001.35
2023-10-12 11:29:00,SystemResetWarning,0813.2,4.99,000.00,028.0,026.4,000.0,036.6,029.6,16.8,0000.0,0002.49,0001.69,0001.35
2023-10-12 11:30:00,SystemResetWarning,0813.2,5.00,000.00,028.0,026.4,000.0,036.5,029.6,17.1,0000.0,0002.46,0001.64,0001.33
2023-10-12 11:31:00,SystemResetWarning,0813.2,5.00,000.00,028.0,026.5,000.0,036.5,029.6,17.2,0000.0,0002.38,0001.60,0001.32
2023-10-12 11:32:00,SystemResetWarning,0813.3,5.00,000.00,028.0,026.5,000.0,036.5,029.6,17.6,0000.0,0002.29,0001.58,0001.31
2023-10-12 11:33:00,SystemResetWarning,0813.3,5.00,000.00,028.0,026.5,000.0,036.5,029.6,17.6,0000.0,0002.35,0001.57,0001.31
2023-10-12 11:34:00,SystemResetWarning,0813.3,5.01,000.00,028.0,026.5,000.0,036.5,029.6,17.6,0000.0,0002.27,0001.54,0001.30
2023-10-12 11:35:00,SystemResetWarning,0813.3,5.01,000.00,028.0,026.5,000.0,036.5,029.6,17.7,0000.0,0002.26,0001.53,0001.28
2023-10-12 11:36:00,SystemResetWarning,0813.3,5.00,000.00,028.0,026.5,000.0,036.5,029.6,18.1,0000.0,0002.28,0001.53,0001.28
2023-10-12 11:37:00,SystemResetWarning,0813.3,4.99,000.00,028.0,026.5,000.0,036.5,029.7,18.6,0000.0,0002.28,0001.52,0001.28
2023-10-12 11:38:00,SystemResetWarning,0813.3,5.00,000.00,028.0,026.5,000.0,036.5,029.7,19.0,0000.0,0002.34,0001.54,0001.29
2023-10-12 11:39:00,SystemResetWarning,0813.3,5.00,000.00,028.0,026.5,000.0,036.5,029.7,19.4,0000.0,0002.27,0001.53,0001.30
2023-10-12 11:40:00,SystemResetWarning,0813.3,5.00,000.00,028.0,026.5,000.0,036.5,029.7,19.5,0000.0,0002.22,0001.51,0001.31
2023-10-12 11:41:00,SystemResetWarning,0813.3,5.00,000.00,028.1,026.5,000.0,036.5,029.7,19.7,0000.0,0002.21,0001.53,0001.33
2023-10-12 11:42:00,SystemResetWarning,0813.3,5.00,000.00,028.0,026.5,000.0,036.5,029.7,19.7,0000.0,0002.22,0001.56,0001.34
2023-10-12 11:43:00,SystemResetWarning,0813.3,5.00,000.00,028.0,026.5,000.0,036.5,029.6,19.7,0000.0,0002.18,0001.54,0001.33
2023-10-12 11:44:00,SystemResetWarning,0813.3,5.00,000.00,028.0,026.5,000.0,036.5,029.7,19.6,0000.0,0002.03,0001.50,0001.31
2023-10-12 11:45:00,SystemResetWarning,0813.4,5.00,000.00,028.0,026.5,000.0,036.5,029.7,19.6,0000.0,0002.04,0001.50,0001.30
2023-10-12 11:46:00,SystemResetWarning,0813.3,5.01,000.00,028.0,026.5,000.0,036.5,029.7,19.5,0000.0,0002.68,0001.48,0001.29
2023-10-12 11:47:00,SystemResetWarning,0813.3,5.00,000.00,028.0,026.5,000.0,036.5,029.7,19.5,0000.0,0002.61,0001.42,0001.26
2023-10-12 11:48:00,SystemResetWarning,0813.3,5.00,000.00,028.0,026.5,000.0,036.5,029.7,19.6,0000.0,0002.46,0001.34,0001.20
2023-10-12 11:49:00,SystemResetWarning,0813.3,5.00,000.00,028.0,026.5,000.0,036.5,029.7,19.5,0000.0,0002.45,0001.31,0001.16
2023-10-12 11:50:00,SystemResetWarning,0813.3,5.00,000.00,028.1,026.5,000.0,036.5,029.7,19.6,0000.0,0002.42,0001.28,0001.12
2023-10-12 11:51:00,SystemResetWarning,0813.3,5.00,000.00,028.1,026.5,000.0,036.5,029.7,19.8,0000.0,0002.39,0001.24,0001.09
2023-10-12 11:52:00,SystemResetWarning,0813.3,5.00,000.00,028.1,026.5,000.0,036.5,029.7,19.8,0000.0,0002.39,0001.22,0001.06
2023-10-12 11:53:00,SystemResetWarning,0813.3,5.00,000.00,028.1,026.6,000.0,036.5,029.7,19.5,0000.0,0002.27,0001.15,0001.00
2023-10-12 11:54:00,SystemResetWarning,0813.3,5.00,000.00,028.1,026.6,000.0,036.5,029.7,19.4,0000.0,0002.20,0001.09,0000.96
2023-10-12 11:55:00,SystemResetWarning,0813.3,5.00,000.00,028.1,026.6,000.0,036.5,029.7,19.2,0000.0,0002.22,0001.07,0000.92
2023-10-12 11:56:00,SystemResetWarning,0813.4,5.01,000.00,028.1,026.6,000.0,036.5,029.7,19.6,0000.0,0002.19,0001.04,0000.88
2023-10-12 11:57:00,SystemResetWarning,0813.4,5.01,000.00,028.1,026.6,000.0,036.5,029.7,19.8,0000.0,0001.63,0001.03,0000.85
2023-10-12 11:58:00,SystemResetWarning,0813.4,5.00,000.00,028.1,026.5,000.0,036.5,029.7,19.9,0000.0,0001.51,0001.02,0000.84
2023-10-12 11:59:00,SystemResetWarning,0813.4,5.00,000.00,028.1,026.5,000.0,036.5,029.7,20.1,0000.0,0001.65,0001.03,0000.84
